#datetime,building,power
2022-03-28T00:00:00,pth,2.40
2022-03-28T00:02:00,pth,2.40
2022-03-28T00:03:00,pth,1.20
2022-03-28T00:04:00,pth,1.20
2022-03-28T00:05:00,pth,1.20
2022-03-28T00:07:00,pth,2.40
2022-03-28T00:09:00,pth,2.40
2022-03-28T00:10:00,pth,1.20
2022-03-28T00:12:00,pth,2.40
2022-03-28T00:14:00,pth,2.40
2022-03-28T00:16:00,pth,2.40
2022-03-28T00:18:00,pth,2.40
2022-03-28T00:20:00,pth,2.40
2022-03-28T00:22:00,pth,2.40
2022-03-28T00:23:00,pth,1.20
2022-03-28T00:25:00,pth,1.20
2022-03-28T00:26:00,pth,1.20
2022-03-28T00:28:00,pth,3.60
2022-03-28T00:29:00,pth,1.20
2022-03-28T00:30:00,pth,1.20
2022-03-28T00:31:00,pth,1.20
2022-03-28T00:33:00,pth,2.40
2022-03-28T00:35:00,pth,2.40
2022-03-28T00:36:00,pth,1.20
2022-03-28T00:37:00,pth,1.20
2022-03-28T00:38:00,pth,1.20
2022-03-28T00:40:00,pth,2.40
2022-03-28T00:41:00,pth,1.20
2022-03-28T00:43:00,pth,2.40
2022-03-28T00:44:00,pth,1.20
2022-03-28T00:46:00,pth,2.40
2022-03-28T00:47:00,pth,1.20
2022-03-28T00:49:00,pth,2.40
2022-03-28T00:51:00,pth,2.40
2022-03-28T00:53:00,pth,2.40
2022-03-28T00:55:00,pth,1.20
2022-03-28T00:56:00,pth,1.20
2022-03-28T00:57:00,pth,1.20
2022-03-28T00:59:00,pth,2.40
2022-03-28T01:01:00,pth,2.40
2022-03-28T01:02:00,pth,1.20
2022-03-28T01:04:00,pth,2.40
2022-03-28T01:06:00,pth,2.40
2022-03-28T01:07:00,pth,1.20
2022-03-28T01:09:00,pth,2.40
2022-03-28T01:10:00,pth,1.20
2022-03-28T01:11:00,pth,1.19
2022-03-28T01:13:00,pth,1.20
2022-03-28T01:15:00,pth,2.40
2022-03-28T01:16:00,pth,1.20
2022-03-28T01:18:00,pth,2.40
2022-03-28T01:19:00,pth,1.20
2022-03-28T01:21:00,pth,2.40
2022-03-28T01:22:00,pth,1.20
2022-03-28T01:24:00,pth,2.40
2022-03-28T01:26:00,pth,2.40
2022-03-28T01:29:00,pth,2.40
2022-03-28T01:30:00,pth,1.20
2022-03-28T01:32:00,pth,2.40
2022-03-28T01:34:00,pth,1.20
2022-03-28T01:35:00,pth,1.20
2022-03-28T01:37:00,pth,2.40
2022-03-28T01:39:00,pth,2.40
2022-03-28T01:41:00,pth,2.40
2022-03-28T01:42:00,pth,1.20
2022-03-28T01:44:00,pth,2.40
2022-03-28T01:45:00,pth,1.19
2022-03-28T01:47:00,pth,1.20
2022-03-28T01:49:00,pth,2.40
2022-03-28T01:51:00,pth,3.60
2022-03-28T01:53:00,pth,2.40
2022-03-28T01:55:00,pth,2.40
2022-03-28T01:57:00,pth,2.40
2022-03-28T01:59:00,pth,2.40
2022-03-28T02:00:00,pth,1.20
2022-03-28T02:01:00,pth,1.20
2022-03-28T02:03:00,pth,2.40
2022-03-28T02:04:00,pth,2.40
2022-03-28T02:06:00,pth,2.40
2022-03-28T02:07:00,pth,1.20
2022-03-28T02:08:00,pth,1.20
2022-03-28T02:10:00,pth,2.40
2022-03-28T02:12:00,pth,2.40
2022-03-28T02:14:00,pth,2.40
2022-03-28T02:16:00,pth,1.20
2022-03-28T02:17:00,pth,1.19
2022-03-28T02:19:00,pth,2.40
2022-03-28T02:21:00,pth,2.40
2022-03-28T02:23:00,pth,2.40
2022-03-28T02:24:00,pth,1.20
2022-03-28T02:25:00,pth,1.20
2022-03-28T02:27:00,pth,2.40
2022-03-28T02:29:00,pth,2.40
2022-03-28T02:30:00,pth,1.20
2022-03-28T02:32:00,pth,1.20
2022-03-28T02:34:00,pth,2.40
2022-03-28T02:36:00,pth,2.40
2022-03-28T02:37:00,pth,1.20
2022-03-28T02:39:00,pth,2.40
2022-03-28T02:41:00,pth,2.40
2022-03-28T02:42:00,pth,1.20
2022-03-28T02:44:00,pth,2.40
2022-03-28T02:46:00,pth,2.40
2022-03-28T02:49:00,pth,2.40
2022-03-28T02:51:00,pth,2.40
2022-03-28T02:53:00,pth,2.40
2022-03-28T02:55:00,pth,2.40
2022-03-28T02:56:00,pth,1.19
2022-03-28T02:58:00,pth,2.40
2022-03-28T03:00:00,pth,1.20
2022-03-28T03:01:00,pth,1.20
2022-03-28T03:03:00,pth,2.40
2022-03-28T03:05:00,pth,2.40
2022-03-28T03:07:00,pth,2.40
2022-03-28T03:09:00,pth,1.20
2022-03-28T03:11:00,pth,2.40
2022-03-28T03:13:00,pth,2.40
2022-03-28T03:15:00,pth,2.40
2022-03-28T03:16:00,pth,1.20
2022-03-28T03:18:00,pth,2.40
2022-03-28T03:20:00,pth,2.40
2022-03-28T03:22:00,pth,1.20
2022-03-28T03:24:00,pth,3.60
2022-03-28T03:26:00,pth,2.40
2022-03-28T03:28:00,pth,2.40
2022-03-28T03:29:00,pth,1.19
2022-03-28T03:31:00,pth,2.40
2022-03-28T03:32:00,pth,1.20
2022-03-28T03:34:00,pth,2.40
2022-03-28T03:36:00,pth,2.40
2022-03-28T03:38:00,pth,2.40
2022-03-28T03:39:00,pth,1.20
2022-03-28T03:41:00,pth,2.40
2022-03-28T03:42:00,pth,1.19
2022-03-28T03:44:00,pth,2.40
2022-03-28T03:46:00,pth,2.40
2022-03-28T03:47:00,pth,1.20
2022-03-28T03:49:00,pth,2.40
2022-03-28T03:51:00,pth,2.40
2022-03-28T03:53:00,pth,2.40
2022-03-28T03:54:00,pth,1.19
2022-03-28T03:55:00,pth,1.20
2022-03-28T03:57:00,pth,1.20
2022-03-28T03:59:00,pth,2.40
2022-03-28T04:01:00,pth,2.40
2022-03-28T04:03:00,pth,2.40
2022-03-28T04:05:00,pth,2.40
2022-03-28T04:08:00,pth,2.40
2022-03-28T04:10:00,pth,2.40
2022-03-28T04:11:00,pth,1.20
2022-03-28T04:14:00,pth,2.40
2022-03-28T04:15:00,pth,1.20
2022-03-28T04:17:00,pth,2.40
2022-03-28T04:18:00,pth,1.20
2022-03-28T04:20:00,pth,1.20
2022-03-28T04:21:00,pth,1.20
2022-03-28T04:23:00,pth,2.40
2022-03-28T04:24:00,pth,1.20
2022-03-28T04:26:00,pth,2.40
2022-03-28T04:28:00,pth,2.40
2022-03-28T04:29:00,pth,1.20
2022-03-28T04:31:00,pth,1.19
2022-03-28T04:33:00,pth,2.40
2022-03-28T04:34:00,pth,1.20
2022-03-28T04:36:00,pth,2.40
2022-03-28T04:38:00,pth,2.40
2022-03-28T04:39:00,pth,1.20
2022-03-28T04:41:00,pth,2.40
2022-03-28T04:43:00,pth,1.20
2022-03-28T04:44:00,pth,1.19
2022-03-28T04:46:00,pth,2.40
2022-03-28T04:48:00,pth,2.40
2022-03-28T04:50:00,pth,2.40
2022-03-28T04:52:00,pth,2.40
2022-03-28T04:54:00,pth,2.40
2022-03-28T04:56:00,pth,2.40
2022-03-28T04:57:00,pth,1.19
2022-03-28T04:59:00,pth,2.40
2022-03-28T05:01:00,pth,3.60
2022-03-28T05:03:00,pth,2.40
2022-03-28T05:04:00,pth,1.20
2022-03-28T05:06:00,pth,2.40
2022-03-28T05:07:00,pth,1.20
2022-03-28T05:09:00,pth,2.40
2022-03-28T05:11:00,pth,2.40
2022-03-28T05:14:00,pth,3.60
2022-03-28T05:16:00,pth,2.40
2022-03-28T05:18:00,pth,1.20
2022-03-28T05:20:00,pth,2.40
2022-03-28T05:22:00,pth,2.40
2022-03-28T05:24:00,pth,1.20
2022-03-28T05:25:00,pth,1.20
2022-03-28T05:27:00,pth,2.40
2022-03-28T05:29:00,pth,2.40
2022-03-28T05:30:00,pth,1.20
2022-03-28T05:32:00,pth,2.40
2022-03-28T05:34:00,pth,1.20
2022-03-28T05:36:00,pth,2.40
2022-03-28T05:37:00,pth,1.20
2022-03-28T05:38:00,pth,1.20
2022-03-28T05:40:00,pth,2.40
2022-03-28T05:42:00,pth,2.40
2022-03-28T05:44:00,pth,2.40
2022-03-28T05:46:00,pth,2.40
2022-03-28T05:48:00,pth,2.40
2022-03-28T05:50:00,pth,1.19
2022-03-28T05:51:00,pth,1.20
2022-03-28T05:52:00,pth,1.20
2022-03-28T05:54:00,pth,2.40
2022-03-28T05:55:00,pth,1.20
2022-03-28T05:57:00,pth,2.40
2022-03-28T05:58:00,pth,1.20
2022-03-28T06:00:00,pth,2.40
2022-03-28T06:02:00,pth,2.40
2022-03-28T06:04:00,pth,2.40
2022-03-28T06:06:00,pth,2.40
2022-03-28T06:07:00,pth,1.20
2022-03-28T06:08:00,pth,1.19
2022-03-28T06:10:00,pth,1.20
2022-03-28T06:12:00,pth,2.40
2022-03-28T06:14:00,pth,2.40
2022-03-28T06:15:00,pth,1.20
2022-03-28T06:17:00,pth,2.40
2022-03-28T06:18:00,pth,1.20
2022-03-28T06:20:00,pth,3.60
2022-03-28T06:21:00,pth,1.19
2022-03-28T06:23:00,pth,2.40
2022-03-28T06:25:00,pth,2.40
2022-03-28T06:26:00,pth,1.20
2022-03-28T06:28:00,pth,2.40
2022-03-28T06:30:00,pth,2.40
2022-03-28T06:31:00,pth,1.20
2022-03-28T06:33:00,pth,2.40
2022-03-28T06:34:00,pth,1.20
2022-03-28T06:35:00,pth,1.20
2022-03-28T06:37:00,pth,2.40
2022-03-28T06:39:00,pth,2.40
2022-03-28T06:41:00,pth,2.40
2022-03-28T06:44:00,pth,2.40
2022-03-28T06:46:00,pth,2.40
2022-03-28T06:47:00,pth,1.19
2022-03-28T06:49:00,pth,1.20
2022-03-28T06:51:00,pth,2.40
2022-03-28T06:53:00,pth,1.20
2022-03-28T06:54:00,pth,1.20
2022-03-28T06:55:00,pth,1.19
2022-03-28T06:57:00,pth,1.20
2022-03-28T06:59:00,pth,1.20
2022-03-28T07:00:00,pth,1.20
2022-03-28T07:02:00,pth,1.20
2022-03-28T07:03:00,pth,1.20
2022-03-28T07:05:00,pth,1.19
2022-03-28T07:06:00,pth,1.20
2022-03-28T07:07:00,pth,1.20
2022-03-28T07:09:00,pth,2.40
2022-03-28T07:11:00,pth,4.80
2022-03-28T07:12:00,pth,2.40
2022-03-28T07:14:00,pth,3.60
2022-03-28T07:16:00,pth,2.40
2022-03-28T07:19:00,pth,2.40
2022-03-28T07:20:00,pth,1.20
2022-03-28T07:22:00,pth,1.19
2022-03-28T07:24:00,pth,2.40
2022-03-28T07:26:00,pth,1.20
2022-03-28T07:29:00,pth,2.40
2022-03-28T07:31:00,pth,1.19
2022-03-28T07:33:00,pth,2.40
2022-03-28T07:34:00,pth,1.20
2022-03-28T07:36:00,pth,1.20
2022-03-28T07:38:00,pth,2.40
2022-03-28T07:40:00,pth,1.19
2022-03-28T07:41:00,pth,1.20
2022-03-28T07:43:00,pth,1.20
2022-03-28T07:45:00,pth,2.40
2022-03-28T07:47:00,pth,1.20
2022-03-28T07:49:00,pth,2.40
2022-03-28T07:50:00,pth,1.20
2022-03-28T07:52:00,pth,1.20
2022-03-28T07:54:00,pth,2.40
2022-03-28T07:56:00,pth,2.40
2022-03-28T07:58:00,pth,1.20
2022-03-28T08:00:00,pth,1.20
2022-03-28T08:02:00,pth,2.40
2022-03-28T08:05:00,pth,2.40
2022-03-28T08:08:00,pth,2.40
2022-03-28T08:10:00,pth,1.20
2022-03-28T08:12:00,pth,1.20
2022-03-28T08:14:00,pth,2.40
2022-03-28T08:16:00,pth,2.40
2022-03-28T08:18:00,pth,1.20
2022-03-28T08:19:00,pth,1.20
2022-03-28T08:22:00,pth,2.40
2022-03-28T08:24:00,pth,1.20
2022-03-28T08:25:00,pth,1.20
2022-03-28T08:26:00,pth,1.20
2022-03-28T08:28:00,pth,1.20
2022-03-28T08:30:00,pth,1.20
2022-03-28T08:32:00,pth,2.40
2022-03-28T08:34:00,pth,1.20
2022-03-28T08:35:00,pth,1.20
2022-03-28T08:36:00,pth,1.20
2022-03-28T08:38:00,pth,2.40
2022-03-28T08:40:00,pth,1.20
2022-03-28T08:42:00,pth,1.20
2022-03-28T08:43:00,pth,1.20
2022-03-28T08:45:00,pth,1.20
2022-03-28T08:47:00,pth,2.40
2022-03-28T08:49:00,pth,1.19
2022-03-28T08:50:00,pth,1.20
2022-03-28T08:51:00,pth,1.20
2022-03-28T08:53:00,pth,1.20
2022-03-28T08:54:00,pth,1.20
2022-03-28T08:56:00,pth,2.40
2022-03-28T08:58:00,pth,2.40
2022-03-28T09:00:00,pth,1.20
2022-03-28T09:02:00,pth,1.20
2022-03-28T09:04:00,pth,4.80
2022-03-28T09:06:00,pth,4.80
2022-03-28T09:08:00,pth,1.20
2022-03-28T09:11:00,pth,2.40
2022-03-28T09:14:00,pth,2.40
2022-03-28T09:16:00,pth,2.40
2022-03-28T09:17:00,pth,1.20
2022-03-28T09:19:00,pth,6.00
2022-03-28T09:20:00,pth,2.40
2022-03-28T09:22:00,pth,4.80
2022-03-28T09:24:00,pth,3.60
2022-03-28T09:26:00,pth,2.40
2022-03-28T09:28:00,pth,1.19
2022-03-28T09:30:00,pth,2.40
2022-03-28T09:31:00,pth,1.20
2022-03-28T09:33:00,pth,1.20
2022-03-28T09:35:00,pth,2.40
2022-03-28T09:37:00,pth,1.19
2022-03-28T09:38:00,pth,1.20
2022-03-28T09:40:00,pth,1.20
2022-03-28T09:42:00,pth,2.40
2022-03-28T09:44:00,pth,2.40
2022-03-28T09:46:00,pth,2.40
2022-03-28T09:47:00,pth,1.20
2022-03-28T09:49:00,pth,1.20
2022-03-28T09:51:00,pth,2.40
2022-03-28T09:53:00,pth,1.20
2022-03-28T09:55:00,pth,2.40
2022-03-28T09:56:00,pth,2.40
2022-03-28T09:57:00,pth,1.19
2022-03-28T09:59:00,pth,2.40
2022-03-28T10:01:00,pth,2.40
2022-03-28T10:03:00,pth,2.40
2022-03-28T10:04:00,pth,1.19
2022-03-28T10:06:00,pth,1.20
2022-03-28T10:08:00,pth,2.40
2022-03-28T10:10:00,pth,1.20
2022-03-28T10:12:00,pth,2.40
2022-03-28T10:13:00,pth,1.20
2022-03-28T10:15:00,pth,2.40
2022-03-28T10:16:00,pth,1.20
2022-03-28T10:18:00,pth,1.20
2022-03-28T10:19:00,pth,1.19
2022-03-28T10:21:00,pth,1.20
2022-03-28T10:22:00,pth,1.20
2022-03-28T10:24:00,pth,1.20
2022-03-28T10:26:00,pth,2.40
2022-03-28T10:28:00,pth,1.19
2022-03-28T10:31:00,pth,1.20
2022-03-28T10:33:00,pth,2.40
2022-03-28T10:36:00,pth,2.40
2022-03-28T10:37:00,pth,1.20
2022-03-28T10:38:00,pth,1.19
2022-03-28T10:40:00,pth,2.40
2022-03-28T10:42:00,pth,1.20
2022-03-28T10:44:00,pth,1.20
2022-03-28T10:46:00,pth,2.40
2022-03-28T10:48:00,pth,1.20
2022-03-28T10:50:00,pth,2.40
2022-03-28T10:53:00,pth,1.20
2022-03-28T10:55:00,pth,2.40
2022-03-28T10:56:00,pth,1.20
2022-03-28T10:58:00,pth,1.20
2022-03-28T11:00:00,pth,2.40
2022-03-28T11:02:00,pth,1.20
2022-03-28T11:04:00,pth,1.19
2022-03-28T11:06:00,pth,2.40
2022-03-28T11:08:00,pth,1.20
2022-03-28T11:10:00,pth,1.20
2022-03-28T11:12:00,pth,2.40
2022-03-28T11:15:00,pth,2.40
2022-03-28T11:18:00,pth,1.20
2022-03-28T11:20:00,pth,2.40
2022-03-28T11:23:00,pth,2.40
2022-03-28T11:26:00,pth,2.40
2022-03-28T11:28:00,pth,1.20
2022-03-28T11:29:00,pth,1.20
2022-03-28T11:31:00,pth,2.40
2022-03-28T11:33:00,pth,1.20
2022-03-28T11:35:00,pth,1.20
2022-03-28T11:36:00,pth,1.20
2022-03-28T11:38:00,pth,1.20
2022-03-28T11:39:00,pth,1.20
2022-03-28T11:41:00,pth,1.19
2022-03-28T11:43:00,pth,1.20
2022-03-28T11:45:00,pth,2.40
2022-03-28T11:47:00,pth,1.20
2022-03-28T11:49:00,pth,3.60
2022-03-28T11:51:00,pth,2.40
2022-03-28T11:52:00,pth,1.20
2022-03-28T11:54:00,pth,2.40
2022-03-28T11:56:00,pth,2.40
2022-03-28T11:58:00,pth,2.40
2022-03-28T11:59:00,pth,1.20
2022-03-28T12:01:00,pth,2.40
2022-03-28T12:03:00,pth,2.40
2022-03-28T12:05:00,pth,1.20
2022-03-28T12:06:00,pth,1.20
2022-03-28T12:08:00,pth,2.40
2022-03-28T12:09:00,pth,1.20
2022-03-28T12:11:00,pth,1.20
2022-03-28T12:13:00,pth,2.40
2022-03-28T12:15:00,pth,1.20
2022-03-28T12:16:00,pth,1.20
2022-03-28T12:17:00,pth,2.40
2022-03-28T12:19:00,pth,2.40
2022-03-28T12:20:00,pth,1.20
2022-03-28T12:22:00,pth,3.60
2022-03-28T12:23:00,pth,1.20
2022-03-28T12:24:00,pth,1.20
2022-03-28T12:26:00,pth,4.80
2022-03-28T12:28:00,pth,4.80
2022-03-28T12:31:00,pth,1.19
2022-03-28T12:32:00,pth,1.20
2022-03-28T12:33:00,pth,1.20
2022-03-28T12:35:00,pth,1.20
2022-03-28T12:38:00,pth,2.40
2022-03-28T12:41:00,pth,2.40
2022-03-28T12:43:00,pth,1.20
2022-03-28T12:44:00,pth,1.20
2022-03-28T12:46:00,pth,1.20
2022-03-28T12:49:00,pth,2.40
2022-03-28T12:51:00,pth,1.19
2022-03-28T12:52:00,pth,1.20
2022-03-28T12:54:00,pth,1.20
2022-03-28T12:56:00,pth,2.40
2022-03-28T12:59:00,pth,2.40
2022-03-28T13:01:00,pth,1.20
2022-03-28T13:02:00,pth,1.20
2022-03-28T13:05:00,pth,2.40
2022-03-28T13:07:00,pth,1.20
2022-03-28T13:09:00,pth,1.19
2022-03-28T13:11:00,pth,2.40
2022-03-28T13:13:00,pth,1.20
2022-03-28T13:15:00,pth,2.40
2022-03-28T13:18:00,pth,2.40
2022-03-28T13:20:00,pth,1.20
2022-03-28T13:22:00,pth,1.20
2022-03-28T13:23:00,pth,1.20
2022-03-28T13:25:00,pth,2.40
2022-03-28T13:26:00,pth,1.19
2022-03-28T13:28:00,pth,1.20
2022-03-28T13:29:00,pth,1.20
2022-03-28T13:30:00,pth,1.20
2022-03-28T13:32:00,pth,3.60
2022-03-28T13:33:00,pth,1.20
2022-03-28T13:35:00,pth,2.40
2022-03-28T13:37:00,pth,1.20
2022-03-28T13:39:00,pth,2.40
2022-03-28T13:41:00,pth,1.20
2022-03-28T13:43:00,pth,1.20
2022-03-28T13:44:00,pth,1.20
2022-03-28T13:47:00,pth,2.40
2022-03-28T13:49:00,pth,2.40
2022-03-28T13:51:00,pth,1.20
2022-03-28T13:52:00,pth,1.20
2022-03-28T13:54:00,pth,1.20
2022-03-28T13:55:00,pth,1.20
2022-03-28T13:57:00,pth,1.20
2022-03-28T13:59:00,pth,1.19
2022-03-28T14:01:00,pth,1.20
2022-03-28T14:04:00,pth,2.40
2022-03-28T14:06:00,pth,1.20
2022-03-28T14:08:00,pth,1.20
2022-03-28T14:10:00,pth,2.40
2022-03-28T14:12:00,pth,1.20
2022-03-28T14:14:00,pth,1.20
2022-03-28T14:16:00,pth,1.20
2022-03-28T14:17:00,pth,1.20
2022-03-28T14:19:00,pth,1.19
2022-03-28T14:20:00,pth,1.20
2022-03-28T14:22:00,pth,1.20
2022-03-28T14:23:00,pth,1.20
2022-03-28T14:26:00,pth,2.40
2022-03-28T14:28:00,pth,1.20
2022-03-28T14:29:00,pth,1.19
2022-03-28T14:32:00,pth,2.40
2022-03-28T14:33:00,pth,1.20
2022-03-28T14:35:00,pth,1.20
2022-03-28T14:37:00,pth,1.20
2022-03-28T14:38:00,pth,1.19
2022-03-28T14:40:00,pth,1.20
2022-03-28T14:42:00,pth,1.20
2022-03-28T14:44:00,pth,2.40
2022-03-28T14:46:00,pth,1.20
2022-03-28T14:47:00,pth,1.19
2022-03-28T14:49:00,pth,2.40
2022-03-28T14:50:00,pth,1.20
2022-03-28T14:51:00,pth,1.20
2022-03-28T14:53:00,pth,1.20
2022-03-28T14:55:00,pth,1.19
2022-03-28T14:57:00,pth,2.40
2022-03-28T14:59:00,pth,1.20
2022-03-28T15:01:00,pth,1.20
2022-03-28T15:03:00,pth,1.20
2022-03-28T15:05:00,pth,2.40
2022-03-28T15:07:00,pth,1.20
2022-03-28T15:09:00,pth,1.20
2022-03-28T15:10:00,pth,1.20
2022-03-28T15:13:00,pth,1.20
2022-03-28T15:15:00,pth,2.40
2022-03-28T15:18:00,pth,2.40
2022-03-28T15:20:00,pth,1.20
2022-03-28T15:22:00,pth,1.20
2022-03-28T15:24:00,pth,2.40
2022-03-28T15:26:00,pth,1.20
2022-03-28T15:28:00,pth,1.20
2022-03-28T15:30:00,pth,2.40
2022-03-28T15:31:00,pth,1.20
2022-03-28T15:33:00,pth,1.19
2022-03-28T15:34:00,pth,1.20
2022-03-28T15:36:00,pth,1.20
2022-03-28T15:37:00,pth,1.20
2022-03-28T15:39:00,pth,1.20
2022-03-28T15:41:00,pth,1.20
2022-03-28T15:43:00,pth,2.40
2022-03-28T15:46:00,pth,2.40
2022-03-28T15:48:00,pth,1.20
2022-03-28T15:50:00,pth,1.20
2022-03-28T15:51:00,pth,1.20
2022-03-28T15:53:00,pth,1.19
2022-03-28T15:54:00,pth,1.20
2022-03-28T15:56:00,pth,1.20
2022-03-28T15:58:00,pth,1.20
2022-03-28T16:00:00,pth,1.20
2022-03-28T16:01:00,pth,1.20
2022-03-28T16:03:00,pth,1.19
2022-03-28T16:06:00,pth,2.40
2022-03-28T16:08:00,pth,1.20
2022-03-28T16:10:00,pth,1.20
2022-03-28T16:12:00,pth,1.20
2022-03-28T16:14:00,pth,1.19
2022-03-28T16:15:00,pth,1.20
2022-03-28T16:16:00,pth,1.20
2022-03-28T16:18:00,pth,2.40
2022-03-28T16:20:00,pth,1.20
2022-03-28T16:22:00,pth,2.40
2022-03-28T16:25:00,pth,2.40
2022-03-28T16:26:00,pth,1.20
2022-03-28T16:28:00,pth,2.40
2022-03-28T16:30:00,pth,2.40
2022-03-28T16:32:00,pth,2.40
2022-03-28T16:34:00,pth,2.40
2022-03-28T16:35:00,pth,1.19
2022-03-28T16:37:00,pth,2.40
2022-03-28T16:39:00,pth,1.20
2022-03-28T16:41:00,pth,2.40
2022-03-28T16:42:00,pth,1.19
2022-03-28T16:44:00,pth,2.40
2022-03-28T16:46:00,pth,1.20
2022-03-28T16:47:00,pth,1.20
2022-03-28T16:49:00,pth,1.20
2022-03-28T16:51:00,pth,2.40
2022-03-28T16:52:00,pth,6.01
2022-03-28T16:53:00,pth,7.20
2022-03-28T16:55:00,pth,13.20
2022-03-28T16:56:00,pth,6.00
2022-03-28T16:58:00,pth,7.20
2022-03-28T17:00:00,pth,1.20
2022-03-28T17:02:00,pth,1.20
2022-03-28T17:04:00,pth,2.40
2022-03-28T17:07:00,pth,2.40
2022-03-28T17:09:00,pth,2.40
2022-03-28T17:11:00,pth,2.40
2022-03-28T17:13:00,pth,1.20
2022-03-28T17:15:00,pth,2.40
2022-03-28T17:17:00,pth,1.20
2022-03-28T17:19:00,pth,2.40
2022-03-28T17:21:00,pth,1.19
2022-03-28T17:22:00,pth,1.20
2022-03-28T17:24:00,pth,1.20
2022-03-28T17:26:00,pth,1.20
2022-03-28T17:28:00,pth,1.20
2022-03-28T17:30:00,pth,1.20
2022-03-28T17:32:00,pth,1.19
2022-03-28T17:33:00,pth,1.20
2022-03-28T17:35:00,pth,1.20
2022-03-28T17:36:00,pth,1.20
2022-03-28T17:38:00,pth,1.20
2022-03-28T17:40:00,pth,2.40
2022-03-28T17:41:00,pth,1.20
2022-03-28T17:43:00,pth,1.20
2022-03-28T17:44:00,pth,1.20
2022-03-28T17:46:00,pth,2.40
2022-03-28T17:48:00,pth,1.19
2022-03-28T17:49:00,pth,1.20
2022-03-28T17:51:00,pth,1.20
2022-03-28T17:53:00,pth,1.20
2022-03-28T17:56:00,pth,1.20
2022-03-28T17:57:00,pth,1.20
2022-03-28T17:58:00,pth,1.20
2022-03-28T17:59:00,pth,1.19
2022-03-28T18:01:00,pth,1.20
2022-03-28T18:03:00,pth,1.20
2022-03-28T18:04:00,pth,1.20
2022-03-28T18:06:00,pth,1.20
2022-03-28T18:08:00,pth,2.40
2022-03-28T18:10:00,pth,1.20
2022-03-28T18:12:00,pth,2.40
2022-03-28T18:14:00,pth,1.20
2022-03-28T18:16:00,pth,2.40
2022-03-28T18:17:00,pth,1.20
2022-03-28T18:19:00,pth,1.20
2022-03-28T18:21:00,pth,2.40
2022-03-28T18:24:00,pth,1.20
2022-03-28T18:26:00,pth,2.40
2022-03-28T18:29:00,pth,1.20
2022-03-28T18:30:00,pth,1.20
2022-03-28T18:32:00,pth,1.20
2022-03-28T18:33:00,pth,1.20
2022-03-28T18:35:00,pth,1.20
2022-03-28T18:36:00,pth,1.19
2022-03-28T18:38:00,pth,1.20
2022-03-28T18:41:00,pth,2.40
2022-03-28T18:43:00,pth,1.20
2022-03-28T18:45:00,pth,1.20
2022-03-28T18:47:00,pth,2.40
2022-03-28T18:48:00,pth,1.20
2022-03-28T18:50:00,pth,1.20
2022-03-28T18:52:00,pth,2.40
2022-03-28T18:54:00,pth,1.19
2022-03-28T18:56:00,pth,2.40
2022-03-28T18:58:00,pth,1.20
2022-03-28T18:59:00,pth,1.20
2022-03-28T19:01:00,pth,1.20
2022-03-28T19:02:00,pth,1.19
2022-03-28T19:04:00,pth,1.20
2022-03-28T19:06:00,pth,1.20
2022-03-28T19:08:00,pth,2.40
2022-03-28T19:10:00,pth,1.20
2022-03-28T19:12:00,pth,1.20
2022-03-28T19:14:00,pth,2.40
2022-03-28T19:15:00,pth,1.20
2022-03-28T19:17:00,pth,1.20
2022-03-28T19:18:00,pth,1.20
2022-03-28T19:20:00,pth,1.20
2022-03-28T19:22:00,pth,2.40
2022-03-28T19:24:00,pth,2.40
2022-03-28T19:26:00,pth,2.40
2022-03-28T19:28:00,pth,2.40
2022-03-28T19:30:00,pth,2.40
2022-03-28T19:32:00,pth,2.40
2022-03-28T19:33:00,pth,1.19
2022-03-28T19:35:00,pth,3.60
2022-03-28T19:37:00,pth,13.20
2022-03-28T19:39:00,pth,13.20
2022-03-28T19:40:00,pth,7.21
2022-03-28T19:41:00,pth,7.20
2022-03-28T19:43:00,pth,13.20
2022-03-28T19:44:00,pth,6.00
2022-03-28T19:46:00,pth,14.40
2022-03-28T19:48:00,pth,13.20
2022-03-28T19:49:00,pth,7.20
2022-03-28T19:50:00,pth,7.20
2022-03-28T19:52:00,pth,13.21
2022-03-28T19:54:00,pth,14.40
2022-03-28T19:55:00,pth,6.00
2022-03-28T19:57:00,pth,14.40
2022-03-28T19:59:00,pth,13.20
2022-03-28T20:01:00,pth,14.40
2022-03-28T20:03:00,pth,13.21
2022-03-28T20:05:00,pth,14.40
2022-03-28T20:07:00,pth,13.20
2022-03-28T20:08:00,pth,7.20
2022-03-28T20:10:00,pth,13.20
2022-03-28T20:12:00,pth,14.40
2022-03-28T20:13:00,pth,7.20
2022-03-28T20:14:00,pth,7.20
2022-03-28T20:16:00,pth,13.21
2022-03-28T20:18:00,pth,13.20
2022-03-28T20:19:00,pth,7.20
2022-03-28T20:20:00,pth,7.20
2022-03-28T20:22:00,pth,13.20
2022-03-28T20:24:00,pth,13.20
2022-03-28T20:26:00,pth,14.40
2022-03-28T20:27:00,pth,7.20
2022-03-28T20:29:00,pth,13.21
2022-03-28T20:31:00,pth,13.20
2022-03-28T20:33:00,pth,9.60
2022-03-28T20:34:00,pth,2.40
2022-03-28T20:36:00,pth,2.40
2022-03-28T20:38:00,pth,2.40
2022-03-28T20:40:00,pth,2.40
2022-03-28T20:42:00,pth,2.40
2022-03-28T20:44:00,pth,3.60
2022-03-28T20:45:00,pth,1.19
2022-03-28T20:47:00,pth,2.40
2022-03-28T20:49:00,pth,2.40
2022-03-28T20:51:00,pth,2.40
2022-03-28T20:53:00,pth,2.40
2022-03-28T20:55:00,pth,2.40
2022-03-28T20:56:00,pth,1.20
2022-03-28T20:57:00,pth,1.20
2022-03-28T20:59:00,pth,2.40
2022-03-28T21:01:00,pth,2.40
2022-03-28T21:03:00,pth,3.60
2022-03-28T21:04:00,pth,1.20
2022-03-28T21:06:00,pth,2.40
2022-03-28T21:08:00,pth,2.40
2022-03-28T21:09:00,pth,1.19
2022-03-28T21:11:00,pth,2.40
2022-03-28T21:13:00,pth,3.60
2022-03-28T21:15:00,pth,2.40
2022-03-28T21:16:00,pth,1.20
2022-03-28T21:17:00,pth,1.20
2022-03-28T21:19:00,pth,3.60
2022-03-28T21:20:00,pth,1.19
2022-03-28T21:22:00,pth,3.60
2022-03-28T21:23:00,pth,1.20
2022-03-28T21:25:00,pth,3.60
2022-03-28T21:26:00,pth,2.40
2022-03-28T21:28:00,pth,2.40
2022-03-28T21:30:00,pth,3.60
2022-03-28T21:31:00,pth,1.20
2022-03-28T21:33:00,pth,2.40
2022-03-28T21:35:00,pth,3.60
2022-03-28T21:37:00,pth,3.60
2022-03-28T21:38:00,pth,1.20
2022-03-28T21:39:00,pth,1.19
2022-03-28T21:41:00,pth,2.40
2022-03-28T21:42:00,pth,1.20
2022-03-28T21:44:00,pth,3.60
2022-03-28T21:46:00,pth,2.40
2022-03-28T21:48:00,pth,2.40
2022-03-28T21:49:00,pth,2.40
2022-03-28T21:51:00,pth,2.40
2022-03-28T21:53:00,pth,2.40
2022-03-28T21:55:00,pth,2.40
2022-03-28T21:56:00,pth,1.20
2022-03-28T21:58:00,pth,2.40
2022-03-28T22:00:00,pth,2.40
2022-03-28T22:02:00,pth,2.40
2022-03-28T22:03:00,pth,1.20
2022-03-28T22:05:00,pth,3.60
2022-03-28T22:07:00,pth,2.40
2022-03-28T22:09:00,pth,2.40
2022-03-28T22:11:00,pth,2.40
2022-03-28T22:12:00,pth,1.20
2022-03-28T22:14:00,pth,3.60
2022-03-28T22:16:00,pth,3.60
2022-03-28T22:17:00,pth,2.40
2022-03-28T22:19:00,pth,4.80
2022-03-28T22:20:00,pth,1.20
2022-03-28T22:21:00,pth,1.19
2022-03-28T22:22:00,pth,1.20
2022-03-28T22:24:00,pth,3.60
2022-03-28T22:26:00,pth,2.40
2022-03-28T22:27:00,pth,1.20
2022-03-28T22:29:00,pth,3.60
2022-03-28T22:30:00,pth,1.20
2022-03-28T22:32:00,pth,3.60
2022-03-28T22:34:00,pth,2.40
2022-03-28T22:36:00,pth,3.60
2022-03-28T22:38:00,pth,2.40
2022-03-28T22:40:00,pth,3.60
2022-03-28T22:42:00,pth,2.40
2022-03-28T22:43:00,pth,2.40
2022-03-28T22:44:00,pth,1.20
2022-03-28T22:45:00,pth,1.20
2022-03-28T22:47:00,pth,3.60
2022-03-28T22:49:00,pth,2.40
2022-03-28T22:50:00,pth,1.20
2022-03-28T22:52:00,pth,2.40
2022-03-28T22:53:00,pth,1.20
2022-03-28T22:55:00,pth,3.60
2022-03-28T22:56:00,pth,1.19
2022-03-28T22:58:00,pth,2.40
2022-03-28T22:59:00,pth,1.20
2022-03-28T23:01:00,pth,2.40
2022-03-28T23:02:00,pth,1.20
2022-03-28T23:04:00,pth,2.40
2022-03-28T23:06:00,pth,2.40
2022-03-28T23:07:00,pth,1.20
2022-03-28T23:09:00,pth,2.40
2022-03-28T23:11:00,pth,3.60
2022-03-28T23:13:00,pth,2.40
2022-03-28T23:14:00,pth,1.19
2022-03-28T23:16:00,pth,2.40
2022-03-28T23:17:00,pth,1.20
2022-03-28T23:19:00,pth,3.60
2022-03-28T23:21:00,pth,2.40
2022-03-28T23:23:00,pth,2.40
2022-03-28T23:25:00,pth,2.40
2022-03-28T23:26:00,pth,1.19
2022-03-28T23:28:00,pth,2.40
2022-03-28T23:31:00,pth,2.40
2022-03-28T23:32:00,pth,2.40
2022-03-28T23:34:00,pth,2.40
2022-03-28T23:36:00,pth,2.40
2022-03-28T23:37:00,pth,1.20
2022-03-28T23:39:00,pth,1.19
2022-03-28T23:41:00,pth,2.40
2022-03-28T23:42:00,pth,1.20
2022-03-28T23:43:00,pth,1.20
2022-03-28T23:45:00,pth,2.40
2022-03-28T23:46:00,pth,1.20
2022-03-28T23:48:00,pth,2.40
2022-03-28T23:50:00,pth,2.40
2022-03-28T23:52:00,pth,2.40
2022-03-28T23:54:00,pth,2.40
2022-03-28T23:55:00,pth,1.20
2022-03-28T23:57:00,pth,2.40
2022-03-28T23:58:00,pth,1.19
